Daytona Beach, FL

4:02 PM EDT on March 23, 2017 (GMT -0400)
Daytona Beach International

Weather History for KDAB - March, 2013

Change the Weather History Date:

Monday, March 18, 2013

  Actual Average Record
Temperature  
Mean Temperature 71 °F 65 °F  
Max Temperature 80 °F 75 °F 88 °F (1953)
Min Temperature 62 °F 55 °F 37 °F (1956)
Degree Days  
Heating Degree Days 0 3  
Month to date heating degree days 154 67  
Since 1 July heating degree days 620 749  
Cooling Degree Days 6 3  
Month to date cooling degree days 6 39  
Year to date cooling degree days 139 104  
Growing Degree Days 22 (Base 50)    
Moisture  
Dew Point 60 °F    
Average Humidity 68    
Maximum Humidity 87    
Minimum Humidity 48    
Precipitation  
Precipitation T in 0.15 in 2.40 in (1924)
Month to date precipitation 0.05 2.43  
Year to date precipitation 1.93 7.95  
Sea Level Pressure  
Sea Level Pressure 30.00 in    
Wind  
Wind Speed 7 mph (SSW)    
Max Wind Speed 17 mph    
Max Gust Speed 23 mph    
Visibility 10 miles    
Events Rain    
T = Trace of Precipitation, MM = Missing Value Source: NWS Daily Summary

Daily Weather History Graph

Daily Weather History Graph

Search for Another Location

Airport or City:

Trip Planner

Search our weather history database for the weather conditions in past years. The results will help you decide how hot, cold, wet, or windy it might be!

Date:

Astronomy

Mar. 18, 2013 Rise Set
Actual Time 7:30 AM EDT 7:34 PM EDT
Civil Twilight 7:06 AM EDT 7:58 PM EDT
Nautical Twilight 6:38 AM EDT 8:25 PM EDT
Astronomical Twilight 6:11 AM EDT 8:53 PM EDT
Moon 11:54 AM EDT (3/18) 1:07 AM EDT (3/18)
Length of Visible Light 12h 51m
Length of Day
12h 04m
Waxing Crescent, 40% of the Moon is Illuminated
Mar 18
Waxing Crescent
Mar 19
First Quarter
Mar 27
Full
Apr 3
Last Quarter
Apr 10
New

Hourly Weather History & Observations

Time (EDT) Temp. Heat Index Dew Point Humidity Pressure Visibility Wind Dir Wind Speed Gust Speed Precip Events Conditions
12:53 AM 64.0 °F - 61.0 °F 90% 30.07 in 8.0 mi Calm Calm - 0.02 in Rain Light Rain
1:53 AM 64.0 °F - 61.0 °F 90% 30.04 in 10.0 mi SSE 3.5 mph - 0.00 in   Overcast
2:53 AM 64.0 °F - 59.0 °F 84% 30.03 in 10.0 mi South 6.9 mph - N/A   Overcast
3:53 AM 64.0 °F - 57.9 °F 80% 30.01 in 10.0 mi South 4.6 mph - 0.00 in   Overcast
4:53 AM 63.0 °F - 57.9 °F 84% 30.02 in 10.0 mi SSW 3.5 mph - N/A   Overcast
5:53 AM 63.0 °F - 57.9 °F 84% 30.00 in 10.0 mi SSE 9.2 mph - N/A   Mostly Cloudy
6:53 AM 64.0 °F - 57.9 °F 80% 30.04 in 10.0 mi SSW 8.1 mph - N/A   Mostly Cloudy
7:53 AM 63.0 °F - 57.9 °F 84% 30.06 in 10.0 mi Calm Calm - N/A   Mostly Cloudy
8:53 AM 64.9 °F - 59.0 °F 81% 30.06 in 10.0 mi South 4.6 mph - N/A   Mostly Cloudy
9:53 AM 68.0 °F - 60.1 °F 76% 30.06 in 10.0 mi South 6.9 mph - N/A   Mostly Cloudy
10:53 AM 71.1 °F - 60.1 °F 68% 30.06 in 10.0 mi South 11.5 mph - N/A   Scattered Clouds
11:53 AM 77.0 °F - 61.0 °F 58% 30.05 in 10.0 mi South 9.2 mph 19.6 mph N/A   Mostly Cloudy
12:53 PM 80.1 °F 80.9 °F 60.1 °F 50% 30.04 in 10.0 mi South 10.4 mph 17.3 mph N/A   Mostly Cloudy
1:53 PM 79.0 °F - 57.9 °F 48% 30.01 in 10.0 mi SSW 12.7 mph - N/A   Mostly Cloudy
2:53 PM 78.1 °F - 59.0 °F 52% 29.97 in 10.0 mi SSW 9.2 mph - N/A   Mostly Cloudy
3:53 PM 80.1 °F 80.7 °F 59.0 °F 48% 29.95 in 10.0 mi SW 9.2 mph - N/A   Mostly Cloudy
4:53 PM 79.0 °F - 60.1 °F 52% 29.94 in 10.0 mi SSW 8.1 mph - N/A   Overcast
5:53 PM 78.1 °F - 60.1 °F 54% 29.94 in 10.0 mi SW 8.1 mph - N/A   Mostly Cloudy
6:53 PM 75.9 °F - 60.1 °F 58% 29.95 in 10.0 mi WSW 5.8 mph - N/A   Overcast
7:53 PM 73.0 °F - 61.0 °F 66% 29.94 in 10.0 mi Calm Calm - 0.00 in   Overcast
8:53 PM 71.1 °F - 61.0 °F 70% 29.94 in 10.0 mi South 3.5 mph - N/A   Overcast
9:53 PM 71.1 °F - 62.1 °F 73% 29.91 in 10.0 mi South 8.1 mph - N/A   Overcast
10:53 PM 71.1 °F - 61.0 °F 70% 29.92 in 10.0 mi SSW 9.2 mph - N/A   Overcast
11:53 PM 69.1 °F - 61.0 °F 75% 29.95 in 10.0 mi SW 6.9 mph - N/A   Overcast